| time (UTC) | temp F | wind direction | speed MPH | gust MPH | rain 1hr in | rain 24hr in | rain mn in | humidity % | barometer mb |
| 20260904112101 | 62 | 284 | 3.0 | 8.0 | 0.00 | 0.00 | 0.00 | 76 | 1018.3 |
| 20260904111600 | 62 | 309 | 2.0 | 5.0 | 0.00 | 0.00 | 0.00 | 76 | 1018.2 |
| 20260904111059 | 62 | 265 | 1.0 | 6.0 | 0.00 | 0.00 | 0.00 | 76 | 1018.2 |
| 20260904110559 | 62 | 259 | 2.0 | 5.0 | 0.00 | 0.00 | 0.00 | 76 | 1018.2 |
| 20260904110059 | 62 | 289 | 2.0 | 6.0 | 0.00 | 0.00 | 0.00 | 75 | 1018.1 |
| 20260904105559 | 62 | 282 | 2.0 | 8.0 | 0.00 | 0.00 | 0.00 | 75 | 1018.1 |
| 20260904105101 | 62 | 254 | 4.0 | 8.0 | 0.00 | 0.00 | 0.00 | 75 | 1018.0 |
| 20260904104600 | 62 | 315 | 2.0 | 8.0 | 0.00 | 0.00 | 0.00 | 75 | 1018.0 |
| 20260904104059 | 62 | 285 | 2.0 | 4.0 | 0.00 | 0.00 | 0.00 | 75 | 1017.9 |
| 20260904103559 | 62 | 263 | 2.0 | 4.0 | 0.00 | 0.00 | 0.00 | 76 | 1017.8 |
| 20260904103059 | 62 | 313 | 1.0 | 6.0 | 0.00 | 0.00 | 0.00 | 75 | 1017.7 |
| 20260904102602 | 62 | 338 | 2.0 | 6.0 | 0.00 | 0.00 | 0.00 | 75 | 1017.7 |
| 20260904102100 | 62 | 333 | 1.0 | 5.0 | 0.00 | 0.00 | 0.00 | 75 | 1017.6 |
| 20260904101559 | 62 | 324 | 2.0 | 5.0 | 0.00 | 0.00 | 0.00 | 75 | 1017.6 |
| 20260904101058 | 62 | 316 | 2.0 | 5.0 | 0.00 | 0.00 | 0.00 | 76 | 1017.5 |
| 20260904100557 | 62 | 320 | 1.0 | 4.0 | 0.00 | 0.00 | 0.00 | 76 | 1017.4 |
| 20260904100105 | 62 | 325 | 0.0 | 3.0 | 0.00 | 0.00 | 0.00 | 75 | 1017.4 |
| 20260904095557 | 62 | 13 | 0.0 | 4.0 | 0.00 | 0.00 | 0.00 | 75 | 1017.3 |
| 20260904095057 | 62 | 336 | 0.0 | 4.0 | 0.00 | 0.00 | 0.00 | 75 | 1017.4 |
| 20260904094602 | 62 | 254 | 0.0 | 3.0 | 0.00 | 0.00 | 0.00 | 75 | 1017.3 |
| 20260904094057 | 62 | 257 | 1.0 | 5.0 | 0.00 | 0.00 | 0.00 | 74 | 1017.3 |
| 20260904093558 | 62 | 263 | 1.0 | 4.0 | 0.00 | 0.00 | 0.00 | 74 | 1017.2 |
| 20260904093057 | 62 | 261 | 1.0 | 6.0 | 0.00 | 0.00 | 0.00 | 74 | 1017.2 |
| 20260904092556 | 62 | 344 | 1.0 | 9.0 | 0.00 | 0.00 | 0.00 | 74 | 1017.1 |
| 20260904092056 | 62 | 279 | 3.0 | 8.0 | 0.00 | 0.00 | 0.00 | 75 | 1016.9 |
| 20260904091556 | 62 | 248 | 1.0 | 6.0 | 0.00 | 0.00 | 0.00 | 75 | 1017.0 |
| 20260904091057 | 62 | 314 | 0.0 | 6.0 | 0.00 | 0.00 | 0.00 | 75 | 1017.0 |
| 20260904090556 | 62 | 303 | 1.0 | 6.0 | 0.00 | 0.00 | 0.00 | 75 | 1016.9 |
| 20260904090105 | 62 | 298 | 1.0 | 3.0 | 0.00 | 0.00 | 0.00 | 75 | 1016.8 |
| 20260904085556 | 62 | 17 | 1.0 | 4.0 | 0.00 | 0.00 | 0.00 | 75 | 1016.9 |
| 20260904085056 | 62 | 334 | 0.0 | 4.0 | 0.00 | 0.00 | 0.00 | 75 | 1016.9 |
| 20260904084558 | 62 | 301 | 1.0 | 4.0 | 0.00 | 0.00 | 0.00 | 75 | 1016.9 |
| 20260904084054 | 62 | 337 | 0.0 | 5.0 | 0.00 | 0.00 | 0.00 | 76 | 1016.8 |
| 20260904083554 | 62 | 316 | 1.0 | 5.0 | 0.00 | 0.00 | 0.00 | 76 | 1016.8 |
| 20260904083137 | 62 | 319 | 0.0 | 3.0 | 0.00 | 0.00 | 0.00 | 76 | 1016.9 |
| 20260904082554 | 62 | 32 | 1.0 | 4.0 | 0.00 | 0.00 | 0.00 | 76 | 1016.8 |
| 20260904082053 | 62 | 284 | 0.0 | 4.0 | 0.00 | 0.00 | 0.00 | 76 | 1016.8 |
| 20260904081554 | 62 | 30 | 1.0 | 3.0 | 0.00 | 0.00 | 0.00 | 76 | 1016.7 |
| 20260904081053 | 62 | 5 | 0.0 | 4.0 | 0.00 | 0.00 | 0.00 | 76 | 1016.6 |
| 20260904080552 | 62 | 13 | 0.0 | 5.0 | 0.00 | 0.00 | 0.00 | 76 | 1016.5 |
| 20260904080052 | 62 | 317 | 1.0 | 7.0 | 0.00 | 0.00 | 0.00 | 76 | 1016.4 |
| 20260904075552 | 62 | 328 | 1.0 | 7.0 | 0.00 | 0.00 | 0.00 | 76 | 1016.4 |
| 20260904075052 | 62 | 51 | 1.0 | 5.0 | 0.00 | 0.00 | 0.00 | 75 | 1016.4 |
| 20260904074551 | 63 | 23 | 1.0 | 5.0 | 0.00 | 0.00 | 0.00 | 75 | 1016.5 |
| 20260904074052 | 63 | 153 | 0.0 | 3.0 | 0.00 | 0.00 | 0.00 | 74 | 1016.4 |
| 20260904073552 | 63 | 342 | 0.0 | 5.0 | 0.00 | 0.00 | 0.00 | 74 | 1016.4 |
| 20260904073058 | 63 | 141 | 1.0 | 5.0 | 0.00 | 0.00 | 0.00 | 73 | 1016.3 |
| 20260904072550 | 64 | 325 | 1.0 | 5.0 | 0.00 | 0.00 | 0.00 | 73 | 1016.3 |
| 20260904072051 | 64 | 132 | 2.0 | 5.0 | 0.00 | 0.00 | 0.00 | 73 | 1016.4 |
| 20260904071616 | 64 | 155 | 1.0 | 7.0 | 0.00 | 0.00 | 0.00 | 72 | 1016.3 |
| 20260904071050 | 64 | 71 | 2.0 | 7.0 | 0.00 | 0.00 | 0.00 | 72 | 1016.2 |
| 20260904070549 | 64 | 57 | 2.0 | 7.0 | 0.00 | 0.00 | 0.00 | 71 | 1016.1 |
| 20260904070111 | 65 | 60 | 1.0 | 6.0 | 0.00 | 0.00 | 0.00 | 71 | 1016.2 |
| 20260904065549 | 65 | 65 | 2.0 | 6.0 | 0.00 | 0.00 | 0.00 | 70 | 1016.2 |
| 20260904065048 | 65 | 63 | 1.0 | 6.0 | 0.00 | 0.00 | 0.00 | 70 | 1016.1 |
| 20260904064549 | 65 | 79 | 2.0 | 4.0 | 0.00 | 0.00 | 0.00 | 69 | 1016.2 |
| 20260904064051 | 66 | 55 | 1.0 | 4.0 | 0.00 | 0.00 | 0.00 | 68 | 1016.2 |
| 20260904063548 | 66 | 51 | 1.0 | 5.0 | 0.00 | 0.00 | 0.00 | 67 | 1016.2 |
| 20260904063100 | 66 | 73 | 2.0 | 5.0 | 0.00 | 0.00 | 0.00 | 67 | 1016.2 |
| 20260904062552 | 67 | 88 | 1.0 | 4.0 | 0.00 | 0.00 | 0.00 | 66 | 1016.2 |
| 20260904062047 | 67 | 65 | 1.0 | 3.0 | 0.00 | 0.00 | 0.00 | 65 | 1016.2 |
| 20260904061547 | 67 | 60 | 0.0 | 5.0 | 0.00 | 0.00 | 0.00 | 65 | 1016.2 |
| 20260904061048 | 67 | 217 | 1.0 | 5.0 | 0.00 | 0.00 | 0.00 | 65 | 1016.2 |
| 20260904060547 | 68 | 59 | 1.0 | 4.0 | 0.00 | 0.00 | 0.00 | 64 | 1016.2 |
| 20260904060046 | 68 | 64 | 1.0 | 5.0 | 0.00 | 0.00 | 0.00 | 63 | 1016.2 |
| 20260904055546 | 68 | 88 | 1.0 | 5.0 | 0.00 | 0.00 | 0.00 | 62 | 1016.2 |
| 20260904055045 | 68 | 71 | 1.0 | 7.0 | 0.00 | 0.00 | 0.00 | 61 | 1016.3 |
| 20260904054549 | 69 | 67 | 2.0 | 7.0 | 0.00 | 0.00 | 0.00 | 60 | 1016.3 |
| 20260904054045 | 69 | 114 | 1.0 | 3.0 | 0.00 | 0.00 | 0.00 | 60 | 1016.4 |
| 20260904053544 | 69 | 121 | 0.0 | 5.0 | 0.00 | 0.00 | 0.00 | 60 | 1016.3 |
| 20260904053056 | 69 | 51 | 1.0 | 5.0 | 0.00 | 0.00 | 0.00 | 59 | 1016.4 |
| 20260904052543 | 69 | 76 | 1.0 | 9.0 | 0.00 | 0.00 | 0.00 | 58 | 1016.5 |
| 20260904052043 | 69 | 67 | 2.0 | 9.0 | 0.00 | 0.00 | 0.00 | 58 | 1016.5 |
| 20260904051544 | 70 | 103 | 2.0 | 9.0 | 0.00 | 0.00 | 0.00 | 55 | 1016.6 |
| 20260904051041 | 71 | 69 | 1.0 | 4.0 | 0.00 | 0.00 | 0.00 | 55 | 1016.7 |
| 20260904050541 | 71 | 32 | 1.0 | 4.0 | 0.00 | 0.00 | 0.00 | 54 | 1016.6 |
| 20260904050043 | 71 | 59 | 2.0 | 4.0 | 0.00 | 0.00 | 0.00 | 53 | 1016.6 |
| 20260904045541 | 72 | 43 | 1.0 | 6.0 | 0.00 | 0.00 | 0.00 | 53 | 1016.6 |
| 20260904045040 | 71 | 346 | 1.0 | 6.0 | 0.00 | 0.00 | 0.00 | 52 | 1016.7 |
| 20260904044539 | 72 | 82 | 2.0 | 7.0 | 0.00 | 0.00 | 0.00 | 51 | 1016.8 |
| 20260904044041 | 73 | 63 | 1.0 | 6.0 | 0.00 | 0.00 | 0.00 | 50 | 1016.9 |
| 20260904043538 | 74 | 82 | 2.0 | 6.0 | 0.00 | 0.00 | 0.00 | 47 | 1016.9 |
| 20260904043044 | 74 | 192 | 1.0 | 11.0 | 0.00 | 0.00 | 0.00 | 42 | 1017.0 |
| 20260904042542 | 74 | 242 | 3.0 | 11.0 | 0.00 | 0.00 | 0.00 | 41 | 1017.0 |
| 20260904042037 | 74 | 178 | 2.0 | 8.0 | 0.00 | 0.00 | 0.00 | 43 | 1017.0 |
| 20260904041537 | 74 | 300 | 3.0 | 9.0 | 0.00 | 0.00 | 0.00 | 44 | 1017.0 |
| 20260904041037 | 74 | 235 | 4.0 | 10.0 | 0.00 | 0.00 | 0.00 | 43 | 1017.0 |
| 20260904040534 | 74 | 291 | 4.0 | 10.0 | 0.00 | 0.00 | 0.00 | 43 | 1017.1 |
| 20260904040039 | 74 | 255 | 4.0 | 8.0 | 0.00 | 0.00 | 0.00 | 43 | 1017.2 |
| 20260904035534 | 73 | 101 | 1.0 | 11.0 | 0.00 | 0.00 | 0.00 | 43 | 1017.2 |
| 20260904035031 | 73 | 306 | 3.0 | 11.0 | 0.00 | 0.00 | 0.00 | 43 | 1017.3 |
| 20260904034531 | 72 | 246 | 1.0 | 12.0 | 0.00 | 0.00 | 0.00 | 45 | 1017.3 |
| 20260904034029 | 73 | 223 | 7.0 | 12.0 | 0.00 | 0.00 | 0.00 | 43 | 1017.4 |
| 20260904033529 | 73 | 329 | 2.0 | 10.0 | 0.00 | 0.00 | 0.00 | 45 | 1017.5 |
| 20260904033030 | 73 | 252 | 5.0 | 11.0 | 0.00 | 0.00 | 0.00 | 44 | 1017.6 |
| 20260904032528 | 73 | 292 | 4.0 | 12.0 | 0.00 | 0.00 | 0.00 | 44 | 1017.6 |
| 20260904032027 | 73 | 249 | 5.0 | 12.0 | 0.00 | 0.00 | 0.00 | 43 | 1017.7 |
| 20260904031535 | 72 | 15 | 3.0 | 10.0 | 0.00 | 0.00 | 0.00 | 44 | 1017.7 |
| 20260904031025 | 72 | 242 | 4.0 | 10.0 | 0.00 | 0.00 | 0.00 | 44 | 1017.6 |
| 20260904030524 | 71 | 265 | 3.0 | 10.0 | 0.00 | 0.00 | 0.00 | 45 | 1017.7 |
| 20260904030025 | 71 | 237 | 4.0 | 10.0 | 0.00 | 0.00 | 0.00 | 44 | 1017.9 |
| 20260904025524 | 71 | 273 | 4.0 | 11.0 | 0.00 | 0.00 | 0.00 | 45 | 1018.0 |
| 20260904025022 | 72 | 275 | 6.0 | 11.0 | 0.00 | 0.00 | 0.00 | 43 | 1018.0 |
| 20260904024522 | 72 | 5 | 2.0 | 8.0 | 0.00 | 0.00 | 0.00 | 44 | 1018.2 |
| 20260904024023 | 72 | 325 | 3.0 | 9.0 | 0.00 | 0.00 | 0.00 | 44 | 1018.4 |
| 20260904023519 | 71 | 286 | 1.0 | 9.0 | 0.00 | 0.00 | 0.00 | 46 | 1018.5 |
| 20260904023019 | 70 | 287 | 3.0 | 10.0 | 0.00 | 0.00 | 0.00 | 45 | 1018.5 |
| 20260904022518 | 70 | 253 | 4.0 | 10.0 | 0.00 | 0.00 | 0.00 | 45 | 1018.6 |
| 20260904022019 | 70 | 240 | 2.0 | 8.0 | 0.00 | 0.00 | 0.00 | 46 | 1018.8 |
| 20260904021523 | 70 | 178 | 1.0 | 9.0 | 0.00 | 0.00 | 0.00 | 46 | 1018.9 |
| 20260904021015 | 70 | 171 | 1.0 | 10.0 | 0.00 | 0.00 | 0.00 | 45 | 1019.0 |
| 20260904020515 | 70 | 281 | 2.0 | 10.0 | 0.00 | 0.00 | 0.00 | 49 | 1019.1 |
| 20260904020017 | 70 | 308 | 5.0 | 9.0 | 0.00 | 0.00 | 0.00 | 46 | 1019.2 |
| 20260904015518 | 69 | 84 | 1.0 | 9.0 | 0.00 | 0.00 | 0.00 | 48 | 1019.4 |
| 20260904015013 | 69 | 216 | 2.0 | 9.0 | 0.00 | 0.00 | 0.00 | 48 | 1019.5 |
| 20260904014513 | 69 | 236 | 2.0 | 7.0 | 0.00 | 0.00 | 0.00 | 49 | 1019.5 |
| 20260904014014 | 69 | 240 | 2.0 | 6.0 | 0.00 | 0.00 | 0.00 | 49 | 1019.6 |
| 20260904013510 | 69 | 171 | 2.0 | 7.0 | 0.00 | 0.00 | 0.00 | 49 | 1019.5 |
| 20260904013012 | 68 | 238 | 3.0 | 7.0 | 0.00 | 0.00 | 0.00 | 50 | 1019.5 |
| 20260904012509 | 68 | 204 | 3.0 | 8.0 | 0.00 | 0.00 | 0.00 | 49 | 1019.7 |
| 20260904012009 | 68 | 284 | 3.0 | 8.0 | 0.00 | 0.00 | 0.00 | 49 | 1019.8 |
| 20260904011508 | 68 | 228 | 1.0 | 6.0 | 0.00 | 0.00 | 0.00 | 50 | 1019.8 |
| 20260904011007 | 68 | 219 | 3.0 | 6.0 | 0.00 | 0.00 | 0.00 | 50 | 1019.9 |
| 20260904010506 | 68 | 154 | 2.0 | 5.0 | 0.00 | 0.00 | 0.00 | 50 | 1020.0 |
| 20260904010006 | 68 | 191 | 2.0 | 5.0 | 0.00 | 0.00 | 0.00 | 50 | 1020.1 |
| 20260904005508 | 68 | 159 | 1.0 | 5.0 | 0.00 | 0.00 | 0.00 | 50 | 1020.3 |
| 20260904005005 | 68 | 136 | 0.0 | 4.0 | 0.00 | 0.00 | 0.00 | 50 | 1020.3 |
| 20260904004504 | 67 | 136 | 1.0 | 7.0 | 0.00 | 0.00 | 0.00 | 51 | 1020.4 |
| 20260904004003 | 67 | 230 | 2.0 | 7.0 | 0.00 | 0.00 | 0.00 | 52 | 1020.6 |
| 20260904003602 | 67 | 165 | 1.0 | 3.0 | 0.00 | 0.00 | 0.00 | 52 | 1020.7 |
| 20260904003002 | 67 | 324 | 0.0 | 6.0 | 0.00 | 0.00 | 0.00 | 51 | 1020.7 |
| 20260904002502 | 67 | 262 | 2.0 | 6.0 | 0.00 | 0.00 | 0.00 | 52 | 1020.8 |
| 20260904002101 | 67 | 216 | 2.0 | 6.0 | 0.00 | 0.00 | 0.00 | 52 | 1020.8 |
| 20260904002002 | 67 | 176 | 2.0 | 4.0 | 0.00 | 0.00 | 0.00 | 52 | 1020.9 |
| 20260904001605 | 67 | 44 | 1.0 | 4.0 | 0.00 | 0.00 | 0.00 | 53 | 1020.9 |
| 20260904001058 | 67 | 140 | 0.0 | 6.0 | 0.00 | 0.00 | 0.00 | 53 | 1021.0 |
| 20260904000557 | 66 | 170 | 2.0 | 9.0 | 0.00 | 0.00 | 0.00 | 53 | 1020.9 |
| 20260904000107 | 66 | 225 | 2.0 | 9.0 | 0.00 | 0.00 | 0.00 | 53 | 1020.9 |
| 20260903235556 | 66 | 163 | 1.0 | 5.0 | 0.00 | 0.00 | 0.00 | 54 | 1021.0 |
| 20260903235054 | 66 | 186 | 0.0 | 7.0 | 0.00 | 0.00 | 0.00 | 54 | 1021.1 |
| 20260903234554 | 65 | 124 | 1.0 | 8.0 | 0.00 | 0.00 | 0.00 | 55 | 1021.1 |
| 20260903234054 | 65 | 211 | 3.0 | 8.0 | 0.00 | 0.00 | 0.00 | 54 | 1021.1 |
| 20260903233553 | 65 | 171 | 2.0 | 7.0 | 0.00 | 0.00 | 0.00 | 54 | 1021.2 |
| 20260903233053 | 65 | 146 | 3.0 | 7.0 | 0.00 | 0.00 | 0.00 | 54 | 1021.2 |
| 20260903232551 | 65 | 229 | 1.0 | 6.0 | 0.00 | 0.00 | 0.00 | 56 | 1021.3 |
| 20260903232051 | 64 | 175 | 2.0 | 6.0 | 0.00 | 0.00 | 0.00 | 56 | 1021.2 |
| 20260903231550 | 64 | 139 | 2.0 | 9.0 | 0.00 | 0.00 | 0.00 | 56 | 1021.3 |
| 20260903231052 | 64 | 159 | 4.0 | 9.0 | 0.00 | 0.00 | 0.00 | 56 | 1021.4 |
| 20260903230547 | 64 | 215 | 2.0 | 8.0 | 0.00 | 0.00 | 0.00 | 56 | 1021.2 |
| 20260903230052 | 63 | 142 | 3.0 | 8.0 | 0.00 | 0.00 | 0.00 | 57 | 1021.3 |
| 20260903225547 | 63 | 200 | 3.0 | 5.0 | 0.00 | 0.00 | 0.00 | 58 | 1021.2 |
| 20260903225050 | 63 | 198 | 1.0 | 5.0 | 0.00 | 0.00 | 0.00 | 60 | 1021.4 |
| 20260903224546 | 63 | 127 | 2.0 | 5.0 | 0.00 | 0.00 | 0.00 | 59 | 1021.3 |
| 20260903224046 | 62 | 179 | 1.0 | 5.0 | 0.00 | 0.00 | 0.00 | 60 | 1021.2 |
| 20260903223546 | 62 | 210 | 0.0 | 5.0 | 0.00 | 0.00 | 0.00 | 61 | 1021.3 |
| 20260903223046 | 62 | 231 | 2.0 | 5.0 | 0.00 | 0.00 | 0.00 | 60 | 1021.3 |
| 20260903222545 | 62 | 185 | 0.0 | 7.0 | 0.00 | 0.00 | 0.00 | 61 | 1021.3 |
| 20260903222045 | 61 | 290 | 1.0 | 7.0 | 0.00 | 0.00 | 0.00 | 61 | 1021.2 |
| 20260903221545 | 61 | 209 | 1.0 | 3.0 | 0.00 | 0.00 | 0.00 | 62 | 1021.1 |
| 20260903221043 | 61 | 220 | 1.0 | 6.0 | 0.00 | 0.00 | 0.00 | 62 | 1021.1 |
| 20260903220543 | 61 | 275 | 2.0 | 5.0 | 0.00 | 0.00 | 0.00 | 61 | 1021.2 |
| 20260903220043 | 60 | 269 | 1.0 | 4.0 | 0.00 | 0.00 | 0.00 | 62 | 1021.0 |
| 20260903215543 | 60 | 250 | 2.0 | 4.0 | 0.00 | 0.00 | 0.00 | 62 | 1021.1 |
| 20260903215043 | 60 | 243 | 0.0 | 5.0 | 0.00 | 0.00 | 0.00 | 63 | 1021.1 |
| 20260903214555 | 60 | 243 | 1.0 | 5.0 | 0.00 | 0.00 | 0.00 | 63 | 1021.0 |
| 20260903214042 | 59 | 240 | 2.0 | 5.0 | 0.00 | 0.00 | 0.00 | 63 | 1020.9 |
| 20260903213539 | 59 | 251 | 1.0 | 3.0 | 0.00 | 0.00 | 0.00 | 63 | 1021.1 |
| 20260903213045 | 59 | 273 | 0.0 | 4.0 | 0.00 | 0.00 | 0.00 | 65 | 1021.0 |
| 20260903212536 | 59 | 271 | 2.0 | 4.0 | 0.00 | 0.00 | 0.00 | 65 | 1020.8 |
| 20260903212035 | 58 | 264 | 1.0 | 3.0 | 0.00 | 0.00 | 0.00 | 66 | 1020.7 |
| 20260903211535 | 58 | 295 | 1.0 | 2.0 | 0.00 | 0.00 | 0.00 | 66 | 1020.8 |
| 20260903211032 | 58 | 295 | 1.0 | 4.0 | 0.00 | 0.00 | 0.00 | 66 | 1020.8 |
| 20260903210531 | 58 | 295 | 2.0 | 4.0 | 0.00 | 0.00 | 0.00 | 67 | 1020.6 |
| 20260903210029 | 58 | 292 | 2.0 | 3.0 | 0.00 | 0.00 | 0.00 | 68 | 1020.5 |
| 20260903205527 | 57 | 292 | 2.0 | 3.0 | 0.00 | 0.00 | 0.00 | 69 | 1020.5 |
| 20260903205028 | 57 | 292 | 2.0 | 3.0 | 0.00 | 0.00 | 0.00 | 69 | 1020.5 |
| 20260903204526 | 57 | 252 | 1.0 | 3.0 | 0.00 | 0.00 | 0.00 | 70 | 1020.4 |
| 20260903204025 | 57 | 250 | 2.0 | 3.0 | 0.00 | 0.00 | 0.00 | 71 | 1020.3 |
| 20260903203528 | 56 | 282 | 1.0 | 2.0 | 0.00 | 0.00 | 0.00 | 72 | 1020.3 |
| 20260903203025 | 56 | 282 | 0.0 | 3.0 | 0.00 | 0.00 | 0.00 | 72 | 1020.3 |
| 20260903202526 | 57 | 282 | 1.0 | 4.0 | 0.00 | 0.00 | 0.00 | 73 | 1020.2 |
| 20260903202023 | 56 | 281 | 2.0 | 4.0 | 0.00 | 0.00 | 0.00 | 73 | 1020.1 |
| 20260903201532 | 56 | 281 | 2.0 | 4.0 | 0.00 | 0.00 | 0.00 | 73 | 1020.0 |
| 20260903201025 | 56 | 271 | 0.0 | 2.0 | 0.00 | 0.00 | 0.00 | 72 | 1020.0 |
| 20260903200526 | 57 | 271 | 1.0 | 3.0 | 0.00 | 0.00 | 0.00 | 72 | 1020.0 |
| 20260903200021 | 57 | 271 | 2.0 | 4.0 | 0.00 | 0.00 | 0.00 | 71 | 1019.9 |
| 20260903195521 | 57 | 237 | 2.0 | 4.0 | 0.00 | 0.00 | 0.00 | 71 | 1019.9 |
| 20260903195024 | 57 | 273 | 2.0 | 4.0 | 0.00 | 0.00 | 0.00 | 71 | 1019.9 |
| 20260903194524 | 57 | 278 | 0.0 | 3.0 | 0.00 | 0.00 | 0.00 | 71 | 1020.0 |
| 20260903194018 | 57 | 277 | 1.0 | 4.0 | 0.00 | 0.00 | 0.00 | 71 | 1019.9 |
| 20260903193517 | 56 | 279 | 2.0 | 4.0 | 0.00 | 0.00 | 0.00 | 72 | 1019.8 |
| 20260903193017 | 56 | 283 | 2.0 | 4.0 | 0.00 | 0.00 | 0.00 | 72 | 1019.8 |
| 20260903192521 | 56 | 287 | 0.0 | 2.0 | 0.00 | 0.00 | 0.00 | 71 | 1019.9 |
| 20260903192018 | 57 | 287 | 0.0 | 3.0 | 0.00 | 0.00 | 0.00 | 71 | 1019.8 |
| 20260903191515 | 57 | 287 | 0.0 | 4.0 | 0.00 | 0.00 | 0.00 | 71 | 1019.8 |
| 20260903191015 | 56 | 287 | 2.0 | 4.0 | 0.00 | 0.00 | 0.00 | 71 | 1019.7 |
| 20260903190516 | 56 | 314 | 1.0 | 3.0 | 0.00 | 0.00 | 0.00 | 72 | 1019.8 |
| 20260903190014 | 56 | 314 | 1.0 | 4.0 | 0.00 | 0.00 | 0.00 | 72 | 1019.8 |
| 20260903185512 | 56 | 315 | 2.0 | 4.0 | 0.00 | 0.00 | 0.00 | 72 | 1019.8 |
| 20260903185012 | 56 | 319 | 2.0 | 3.0 | 0.00 | 0.00 | 0.00 | 72 | 1019.7 |
| 20260903184511 | 57 | 303 | 2.0 | 3.0 | 0.00 | 0.00 | 0.00 | 72 | 1019.6 |
| 20260903184010 | 57 | 305 | 2.0 | 4.0 | 0.00 | 0.00 | 0.00 | 72 | 1019.5 |
| 20260903183508 | 57 | 323 | 2.0 | 3.0 | 0.00 | 0.00 | 0.00 | 72 | 1019.5 |
| 20260903183008 | 57 | 332 | 0.0 | 3.0 | 0.00 | 0.00 | 0.00 | 72 | 1019.5 |
| 20260903182510 | 58 | 331 | 2.0 | 4.0 | 0.00 | 0.00 | 0.00 | 72 | 1019.3 |
| 20260903182005 | 58 | 284 | 2.0 | 4.0 | 0.00 | 0.00 | 0.00 | 72 | 1019.2 |
| 20260903181506 | 58 | 218 | 0.0 | 2.0 | 0.00 | 0.00 | 0.00 | 71 | 1019.2 |
| 20260903181004 | 58 | 218 | 0.0 | 2.0 | 0.00 | 0.00 | 0.00 | 71 | 1019.2 |
| 20260903180506 | 58 | 207 | 0.0 | 2.0 | 0.00 | 0.00 | 0.00 | 70 | 1019.2 |
| 20260903180002 | 58 | 219 | 0.0 | 2.0 | 0.00 | 0.00 | 0.00 | 70 | 1019.1 |
| 20260903175505 | 58 | 219 | 0.0 | 2.0 | 0.00 | 0.00 | 0.00 | 70 | 1019.1 |
| 20260903175001 | 58 | 219 | 0.0 | 3.0 | 0.00 | 0.00 | 0.00 | 70 | 1019.0 |
| 20260903174602 | 58 | 168 | 0.0 | 3.0 | 0.00 | 0.00 | 0.00 | 70 | 1018.9 |
| 20260903174104 | 58 | 217 | 1.0 | 3.0 | 0.00 | 0.00 | 0.00 | 70 | 1018.8 |
| 20260903173559 | 59 | 217 | 1.0 | 3.0 | 0.00 | 0.00 | 0.00 | 70 | 1018.9 |
| 20260903173058 | 59 | 217 | 0.0 | 2.0 | 0.00 | 0.00 | 0.00 | 70 | 1018.9 |
| 20260903172559 | 59 | 217 | 0.0 | 2.0 | 0.00 | 0.00 | 0.00 | 69 | 1018.9 |
| 20260903172101 | 59 | 217 | 0.0 | 2.0 | 0.00 | 0.00 | 0.00 | 68 | 1018.7 |
| 20260903171555 | 59 | 217 | 0.0 | 4.0 | 0.00 | 0.00 | 0.00 | 67 | 1018.6 |
| 20260903171056 | 59 | 217 | 0.0 | 5.0 | 0.00 | 0.00 | 0.00 | 67 | 1018.7 |
| 20260903170554 | 59 | 164 | 0.0 | 3.0 | 0.00 | 0.00 | 0.00 | 67 | 1018.8 |
| 20260903165553 | 60 | 220 | 0.0 | 2.0 | 0.00 | 0.00 | 0.00 | 66 | 1018.7 |
| 20260903165052 | 60 | 254 | 0.0 | 3.0 | 0.00 | 0.00 | 0.00 | 66 | 1018.7 |
| 20260903164551 | 60 | 304 | 1.0 | 3.0 | 0.00 | 0.00 | 0.00 | 65 | 1018.8 |
| 20260903164051 | 60 | 146 | 1.0 | 4.0 | 0.00 | 0.00 | 0.00 | 65 | 1018.8 |
| 20260903163550 | 60 | 139 | 1.0 | 4.0 | 0.00 | 0.00 | 0.00 | 65 | 1018.8 |
| 20260903163049 | 60 | 87 | 2.0 | 4.0 | 0.00 | 0.00 | 0.00 | 65 | 1018.8 |
| 20260903162548 | 60 | 179 | 1.0 | 5.0 | 0.00 | 0.00 | 0.00 | 64 | 1018.7 |
| 20260903162048 | 61 | 192 | 1.0 | 6.0 | 0.00 | 0.00 | 0.00 | 64 | 1018.8 |
| 20260903161547 | 61 | 148 | 2.0 | 5.0 | 0.00 | 0.00 | 0.00 | 64 | 1018.9 |
| 20260903161046 | 61 | 135 | 1.0 | 6.0 | 0.00 | 0.00 | 0.00 | 64 | 1019.0 |
| 20260903160546 | 61 | 164 | 1.0 | 7.0 | 0.00 | 0.00 | 0.00 | 64 | 1018.9 |
| 20260903160046 | 61 | 174 | 2.0 | 4.0 | 0.00 | 0.00 | 0.00 | 64 | 1018.9 |
| 20260903155545 | 61 | 221 | 1.0 | 3.0 | 0.00 | 0.00 | 0.00 | 64 | 1018.9 |
| 20260903155045 | 61 | 144 | 1.0 | 4.0 | 0.00 | 0.00 | 0.00 | 64 | 1018.9 |
| 20260903154548 | 61 | 140 | 1.0 | 4.0 | 0.00 | 0.00 | 0.00 | 63 | 1019.0 |
| 20260903154044 | 61 | 134 | 1.0 | 5.0 | 0.00 | 0.00 | 0.00 | 64 | 1019.0 |
| 20260903153542 | 61 | 218 | 1.0 | 5.0 | 0.00 | 0.00 | 0.00 | 63 | 1018.9 |
| 20260903153051 | 62 | 220 | 1.0 | 3.0 | 0.00 | 0.00 | 0.00 | 63 | 1018.9 |
| 20260903152543 | 62 | 161 | 1.0 | 3.0 | 0.00 | 0.00 | 0.00 | 63 | 1018.9 |
| 20260903152042 | 62 | 144 | 0.0 | 3.0 | 0.00 | 0.00 | 0.00 | 62 | 1018.9 |
| 20260903151540 | 62 | 146 | 1.0 | 4.0 | 0.00 | 0.00 | 0.00 | 62 | 1018.7 |
| 20260903151037 | 63 | 193 | 0.0 | 7.0 | 0.00 | 0.00 | 0.00 | 62 | 1018.6 |
| 20260903150540 | 63 | 167 | 2.0 | 7.0 | 0.00 | 0.00 | 0.00 | 61 | 1018.6 |
| 20260903150035 | 63 | 219 | 2.0 | 8.0 | 0.00 | 0.00 | 0.00 | 61 | 1018.5 |
| 20260903145537 | 63 | 209 | 2.0 | 7.0 | 0.00 | 0.00 | 0.00 | 61 | 1018.5 |
| 20260903145037 | 63 | 213 | 2.0 | 9.0 | 0.00 | 0.00 | 0.00 | 61 | 1018.4 |
| 20260903144535 | 63 | 213 | 3.0 | 9.0 | 0.00 | 0.00 | 0.00 | 61 | 1018.3 |
| 20260903144036 | 63 | 213 | 1.0 | 9.0 | 0.00 | 0.00 | 0.00 | 61 | 1018.4 |
| 20260903143536 | 63 | 199 | 3.0 | 9.0 | 0.00 | 0.00 | 0.00 | 60 | 1018.4 |
| 20260903143042 | 63 | 219 | 3.0 | 6.0 | 0.00 | 0.00 | 0.00 | 60 | 1018.4 |
| 20260903142532 | 63 | 220 | 2.0 | 5.0 | 0.00 | 0.00 | 0.00 | 60 | 1018.2 |
| 20260903142032 | 63 | 199 | 1.0 | 5.0 | 0.00 | 0.00 | 0.00 | 60 | 1018.3 |
| 20260903141537 | 63 | 190 | 1.0 | 5.0 | 0.00 | 0.00 | 0.00 | 60 | 1018.2 |
| 20260903141028 | 63 | 240 | 0.0 | 5.0 | 0.00 | 0.00 | 0.00 | 60 | 1018.1 |
| 20260903140527 | 63 | 237 | 2.0 | 5.0 | 0.00 | 0.00 | 0.00 | 60 | 1018.1 |
| 20260903140028 | 63 | 244 | 3.0 | 6.0 | 0.00 | 0.00 | 0.00 | 60 | 1018.0 |
| 20260903135526 | 63 | 208 | 2.0 | 5.0 | 0.00 | 0.00 | 0.00 | 60 | 1017.9 |
| 20260903135026 | 63 | 190 | 1.0 | 5.0 | 0.00 | 0.00 | 0.00 | 60 | 1017.9 |
| 20260903134526 | 63 | 259 | 1.0 | 6.0 | 0.00 | 0.00 | 0.00 | 60 | 1017.8 |
| 20260903134025 | 63 | 210 | 2.0 | 6.0 | 0.00 | 0.00 | 0.00 | 60 | 1017.7 |
| 20260903133525 | 64 | 217 | 1.0 | 4.0 | 0.00 | 0.00 | 0.00 | 59 | 1017.7 |
| 20260903133026 | 64 | 198 | 2.0 | 5.0 | 0.00 | 0.00 | 0.00 | 58 | 1017.9 |
| 20260903132526 | 64 | 211 | 0.0 | 3.0 | 0.00 | 0.00 | 0.00 | 58 | 1017.9 |
| 20260903132024 | 65 | 214 | 0.0 | 3.0 | 0.00 | 0.00 | 0.00 | 58 | 1017.8 |
| 20260903131523 | 65 | 237 | 1.0 | 5.0 | 0.00 | 0.00 | 0.00 | 58 | 1017.7 |
| 20260903131025 | 65 | 198 | 1.0 | 5.0 | 0.00 | 0.00 | 0.00 | 58 | 1017.6 |
| 20260903130525 | 65 | 249 | 3.0 | 5.0 | 0.00 | 0.00 | 0.00 | 58 | 1017.5 |
| 20260903130022 | 65 | 255 | 2.0 | 4.0 | 0.00 | 0.00 | 0.00 | 59 | 1017.6 |
| 20260903125521 | 65 | 254 | 0.0 | 5.0 | 0.00 | 0.00 | 0.00 | 56 | 1017.6 |
| 20260903125024 | 66 | 254 | 1.0 | 7.0 | 0.00 | 0.00 | 0.00 | 55 | 1017.5 |
| 20260903124519 | 66 | 236 | 3.0 | 7.0 | 0.00 | 0.00 | 0.00 | 55 | 1017.3 |
| 20260903124020 | 66 | 244 | 3.0 | 7.0 | 0.00 | 0.00 | 0.00 | 54 | 1017.2 |
| 20260903123518 | 66 | 274 | 4.0 | 6.0 | 0.00 | 0.00 | 0.00 | 53 | 1017.1 |
| 20260903123018 | 66 | 244 | 2.0 | 5.0 | 0.00 | 0.00 | 0.00 | 52 | 1017.1 |
| 20260903122518 | 66 | 273 | 2.0 | 3.0 | 0.00 | 0.00 | 0.00 | 52 | 1017.1 |
| 20260903122017 | 67 | 267 | 1.0 | 4.0 | 0.00 | 0.00 | 0.00 | 51 | 1017.1 |
| 20260903121516 | 67 | 273 | 2.0 | 7.0 | 0.00 | 0.00 | 0.00 | 51 | 1016.9 |
| 20260903121015 | 67 | 254 | 3.0 | 7.0 | 0.00 | 0.00 | 0.00 | 51 | 1016.8 |
| 20260903120515 | 67 | 252 | 2.0 | 5.0 | 0.00 | 0.00 | 0.00 | 51 | 1016.8 |
| 20260903120015 | 67 | 254 | 3.0 | 5.0 | 0.00 | 0.00 | 0.00 | 51 | 1016.8 |
| 20260903115515 | 67 | 271 | 1.0 | 2.0 | 0.00 | 0.00 | 0.00 | 51 | 1016.9 |
| 20260903115015 | 68 | 293 | 0.0 | 1.0 | 0.00 | 0.00 | 0.00 | 50 | 1016.8 |
| 20260903114515 | 68 | 293 | 0.0 | 7.0 | 0.00 | 0.00 | 0.00 | 50 | 1016.9 |
| 20260903114013 | 68 | 293 | 2.0 | 8.0 | 0.00 | 0.00 | 0.00 | 49 | 1016.7 |
| 20260903113512 | 68 | 283 | 4.0 | 9.0 | 0.00 | 0.00 | 0.00 | 48 | 1016.6 |
| 20260903113012 | 69 | 263 | 4.0 | 9.0 | 0.00 | 0.00 | 0.00 | 48 | 1016.4 |
| 20260903112511 | 69 | 288 | 4.0 | 8.0 | 0.00 | 0.00 | 0.00 | 47 | 1016.3 |